Location: Gniazdowice
(50.2124°N, 20.2673°E)
Time: 14:52:25
(UTC+00:00)

COSMOS 2428 - Pass Details

Date: 23 May 2024
Orbit: 844 x 856 km, 70.9° (Epoch: 12 June)

Event Time Altitude Azimuth Distance (km) Brightness Sun altitude
Rises 01:57:39 0° 330° (NNW) 3,416 6.0 -6.3°
Reaches altitude 10° 02:00:07 10° 332° (NNW) 2,478 5.3 -6.0°
Maximum altitude 02:05:49 80° 59° (ENE) 865 2.9 -5.4°
Drops below altitude 10° 02:11:30 10° 148° (SSE) 2,468 5.1 -4.7°
Sets 02:13:57 0° 149° (SSE) 3,401 5.8 -4.4°
